Regional Weather Roundup
Issued by NWS Green Bay, WI

Home | Current Version | Previous Version | Text Only | Print | Product List | Glossary On
Versions: 1 2 3 4 5 6 7 8 9 10 11 12 13 14 15 16 17 18 19 20 21 22 23 24 25 26 27 28 29 30 31 32 33 34 35 36 37 38 39 40 41 42 43 44 45 46 47 48 49 50
092
ASUS43 KGRB 260611
RWRGRB

NORTH-CENTRAL AND NORTHEAST WISCONSIN REGIONAL WEATHER ROUNDUP
NATIONAL WEATHER SERVICE GREEN BAY WI
100 AM CDT MON SEP 26 2016

WIZ005-009-010>012-018-019-260700-
NORTH CENTRAL WISCONSIN

CITY           SKY/WX    TMP DP  RH WIND       PRES   REMARKS
IRONWOOD       CLOUDY    53  48  83 W18G25    29.76F
MANITOWISH WTR CLOUDY    51  50  97 W10G18    29.78F
ARBOR VITAE    CLOUDY    53  50  89 W8G17     29.79F
EAGLE RIVER    CLOUDY    52  51  95 W12       29.78F
LAND O LAKES   LGT RAIN  54  52  92 W7        29.78F
RHINELANDER    LGT RAIN  52  51  97 W10G21    29.81F FOG
PHILLIPS       CLOUDY    51  49  92 SW10      29.82F
ANTIGO         CLOUDY    53  50  89 W7G16     29.83F
TOMAHAWK       CLOUDY    52  48  86 W6G18     29.83F
MERRILL        CLOUDY    55  50  85 W13       29.85F
$$

WIZ013-073-260700-
NORTHEAST WISCONSIN

CITY           SKY/WX    TMP DP  RH WIND       PRES   REMARKS
IRON MOUNTAIN  CLOUDY    58  53  84 W7        29.76F
MARINETTE        N/A    N/A N/A N/A MISG        N/A
OCONTO         CLOUDY    59  55  86 W8        29.81S
$$

WIZ017-030-035>037-045-260700-
CENTRAL WISCONSIN

CITY           SKY/WX    TMP DP  RH WIND       PRES   REMARKS
MEDFORD        PTCLDY    50  49  96 W12       29.86F
WAUSAU         CLOUDY    54  50  86 W14       29.84F
MOSINEE        CLOUDY    54  46  76 W13G28    29.87F
MARSHFIELD     PTCLDY    54  44  69 W14G24    29.89S
WISC RAPIDS    CLOUDY    55  50  83 W12       29.92F
STEVENS POINT  CLOUDY    55  48  77 W10G21    29.89S
WAUPACA        CLOUDY    59  55  87 W13G18    29.89S
SHAWANO        CLOUDY    60  54  79 W9G20     29.84S
CLINTONVILLE   NOT AVBL
WAUTOMA        CLOUDY    59  50  72 W12G22    29.91F
$$

WIZ038-039-048-051-260700-
FOX VALLEY

CITY           SKY/WX    TMP DP  RH WIND       PRES   REMARKS
NWS GREEN BAY  CLOUDY    60  56  86 W10       29.84F
APPLETON       CLOUDY    57  52  82 W14G23    29.86S
OSHKOSH        CLOUDY    60  51  72 W13G24    29.89R
FOND DU LAC    CLOUDY    61  53  75 W14G22    29.90R
$$

WIZ022-050-052-260700-
EAST CENTRAL WISCONSIN

CITY           SKY/WX    TMP DP  RH WIND       PRES   REMARKS
EPHRAIM        FAIR      60  57  90 W8        29.79S
WASHINGTON ISL MOCLDY    62  58  87 W13       29.77S
STURGEON BAY   CLOUDY    61  56  83 W10       29.82F
MANITOWOC      CLOUDY    63  55  75 W8G17     29.85F
SHEBOYGAN      CLOUDY    61  54  77 W13       29.87S
$$

LMZ563-521-522-541>543-260700-
LAKESHORE

STATION/POSITION TIME  TEMP    WIND        PRES    VSBY  WAVE
                       AIR SEA DIR/SP/G                  HT/PER
                 (UTC) (F)     (DEG/KT/KT) (MB)    (MI)  (FT/S)
SHEBOYGAN LKSHOR 0600   63     260/ 10/ 13 1010.9F
KEWAUNEE LKSHORE 0500   64     260/  7/ 11 1010.0F
NORTHPORT PIER   0500   64     270/  4/ 10 1008.1F
N MID LAKE BUOY  0550   67 67  240/ 17/ 21 1007.2F         5/ 7
CHAMBERS ISLAND  0500   63     220/  7/ 13 1008.8S
MENOMINEE LKSHOR 0500   62     240/ 10/ 14 1008.6S
$$




USA.gov is the U.S. government's official web portal to all federal, state and local government web resources and services.